Ana Sayfa
METAR-TAF:

METAR-TAF

Havaalanları :

Mount Airy/Surry County Airport

Mount Airy, Kuzey Carolina, Amerika Birleşik Devletleri

Enlem: 36-27-35N, Boylam: 080-33-11W, yükseklik: 380 m

Güncel hava durumu gözlemi

Rapor saat 02:15 UTC de 16 dakika önce yapıldı.
Rüzgar doğu/kuzeydoğudan 3 kt
Sıcaklık 6°C
Nem 70%
Basınç 1030 hPa
Görüş mesafesi: 16.1 km
3600 ft yükseklikte çok bulutlu

METAR: KMWK 080215Z AUTO 07003KT 10SM OVC036 06/01 A3041 RMK AO2 T00600007

Saat: 21:31 (02:31 UTC)


TAF: eksik

4.000'den fazla havaalanı için hava durumu gözlemleri ve tahminleri (METAR ve TAF raporları).

Kullanılabilir istasyonlar harita üzerinde sarı ve kırmızı noktalarla gösterilir.

İstasyonun adını görmek için fareyi noktanın üzerinde gezdirin.

Sonrasında hava gözlem ve tahminlerini görmek için tıklayın.

Haritayı değiştirmek için: yaklaştırmak için siyah artı işaretli yeşil düğmeye ve uzaklaştırmak için de eksi işaretli düğmeye hızla tıklayın; bitişik haritalar için yeşil okları kullanın.


METAR-TAF: